Time,TemperatureF,DewpointF,PressureIn,WindDirection,WindDirectionDegrees,WindSpeedMPH,WindSpeedGustMPH,Humidity,HourlyPrecipIn,Conditions,Clouds,dailyrainin,SoftwareType,DateUTC
2013-05-04 00:01:00,77.0,29.0,29.56,NNE,23,10.0,13.0,17,0.00,,,0.00,,2013-05-04 07:01:00,
2013-05-04 00:21:00,77.0,30.0,29.55,NNE,13,7.0,9.0,18,0.00,,,0.00,,2013-05-04 07:21:00,
2013-05-04 00:41:00,77.0,30.0,29.55,NNE,13,7.0,9.0,18,0.00,,,0.00,,2013-05-04 07:41:00,
2013-05-04 00:52:00,77.0,30.0,29.55,North,0,0.0,2.0,18,0.00,,,0.00,,2013-05-04 07:52:00,
2013-05-04 01:01:00,75.0,29.0,29.55,North,0,0.0,1.0,18,0.00,,,0.00,,2013-05-04 08:01:00,
2013-05-04 01:11:00,75.0,29.0,29.55,North,0,0.0,1.0,18,0.00,,,0.00,,2013-05-04 08:11:00,
2013-05-04 01:21:00,76.0,28.0,29.54,NE,52,7.0,10.0,17,0.00,,,0.00,,2013-05-04 08:21:00,
2013-05-04 01:31:00,76.0,28.0,29.54,NE,52,7.0,10.0,17,0.00,,,0.00,,2013-05-04 08:31:00,
2013-05-04 01:41:00,76.0,28.0,29.54,NE,52,7.0,10.0,17,0.00,,,0.00,,2013-05-04 08:41:00,
2013-05-04 01:52:00,74.0,26.0,29.53,ESE,109,8.0,10.0,17,0.00,,,0.00,,2013-05-04 08:52:00,
2013-05-04 02:02:00,74.0,26.0,29.53,ESE,109,8.0,10.0,17,0.00,,,0.00,,2013-05-04 09:02:00,
2013-05-04 02:11:00,74.0,26.0,29.53,ESE,109,8.0,10.0,17,0.00,,,0.00,,2013-05-04 09:11:00,
2013-05-04 02:21:00,74.0,26.0,29.53,ESE,109,8.0,10.0,17,0.00,,,0.00,,2013-05-04 09:21:00,
2013-05-04 05:30:00,66.0,26.0,29.50,ESE,113,3.0,8.0,22,0.00,,,0.00,,2013-05-04 12:30:00,
2013-05-04 05:37:00,66.0,26.0,29.50,ESE,113,3.0,8.0,22,0.00,,,0.00,,2013-05-04 12:37:00,
2013-05-04 05:52:00,66.0,26.0,29.50,ESE,113,3.0,8.0,22,0.00,,,0.00,,2013-05-04 12:52:00,
2013-05-04 06:01:00,66.0,26.0,29.50,ESE,113,3.0,8.0,22,0.00,,,0.00,,2013-05-04 13:01:00,
2013-05-04 06:22:00,67.0,26.0,29.50,ESE,108,6.0,8.0,21,0.00,,,0.00,,2013-05-04 13:22:00,
2013-05-04 06:32:00,67.0,26.0,29.50,ESE,108,6.0,8.0,21,0.00,,,0.00,,2013-05-04 13:32:00,
2013-05-04 06:42:00,67.0,26.0,29.50,ESE,108,6.0,8.0,21,0.00,,,0.00,,2013-05-04 13:42:00,
2013-05-04 06:52:00,67.0,26.0,29.50,ESE,108,6.0,8.0,21,0.00,,,0.00,,2013-05-04 13:52:00,
2013-05-04 10:22:00,64.0,42.0,29.53,North,0,0.0,6.0,45,0.00,,,0.00,,2013-05-04 17:22:00,
2013-05-04 10:32:00,64.0,42.0,29.53,North,0,0.0,6.0,45,0.00,,,0.00,,2013-05-04 17:32:00,
2013-05-04 10:42:00,64.0,42.0,29.53,North,0,0.0,6.0,45,0.00,,,0.00,,2013-05-04 17:42:00,
2013-05-04 10:52:00,64.0,42.0,29.53,North,0,0.0,6.0,45,0.00,,,0.00,,2013-05-04 17:52:00,
2013-05-04 11:01:00,64.0,42.0,29.53,North,0,0.0,6.0,45,0.00,,,0.00,,2013-05-04 18:01:00,
2013-05-04 11:22:00,68.0,46.0,29.54,North,0,0.0,4.0,46,0.00,,,0.00,,2013-05-04 18:22:00,
2013-05-04 11:32:00,68.0,46.0,29.54,North,0,0.0,4.0,46,0.00,,,0.00,,2013-05-04 18:32:00,
2013-05-04 11:42:00,68.0,46.0,29.54,North,0,0.0,4.0,46,0.00,,,0.00,,2013-05-04 18:42:00,
2013-05-04 11:52:00,68.0,46.0,29.54,North,0,0.0,4.0,46,0.00,,,0.00,,2013-05-04 18:52:00,
2013-05-04 12:01:00,66.0,49.0,29.52,SSE,158,3.0,12.0,54,0.00,,,0.00,,2013-05-04 19:01:00,
2013-05-04 12:11:00,66.0,49.0,29.52,SSE,158,3.0,12.0,54,0.00,,,0.00,,2013-05-04 19:11:00,
2013-05-04 12:21:00,66.0,49.0,29.52,SSE,158,3.0,12.0,54,0.00,,,0.00,,2013-05-04 19:21:00,
2013-05-04 12:31:00,66.0,49.0,29.52,SSE,158,3.0,12.0,54,0.00,,,0.00,,2013-05-04 19:31:00,
2013-05-04 12:41:00,66.0,49.0,29.52,SSE,158,3.0,12.0,54,0.00,,,0.00,,2013-05-04 19:41:00,
2013-05-04 12:52:00,68.0,47.0,29.51,SSE,166,5.0,8.0,47,0.00,,,0.00,,2013-05-04 19:52:00,
2013-05-04 13:02:00,67.0,49.0,29.52,SSE,164,3.0,9.0,53,0.00,,,0.00,,2013-05-04 20:02:00,
2013-05-04 13:11:00,67.0,49.0,29.52,SSE,164,3.0,9.0,53,0.00,,,0.00,,2013-05-04 20:11:00,
2013-05-04 13:21:00,67.0,49.0,29.52,SSE,164,3.0,9.0,53,0.00,,,0.00,,2013-05-04 20:21:00,
2013-05-04 13:31:00,67.0,49.0,29.52,SSE,164,3.0,9.0,53,0.00,,,0.00,,2013-05-04 20:31:00,
2013-05-04 13:41:00,67.0,49.0,29.52,SSE,164,3.0,9.0,53,0.00,,,0.00,,2013-05-04 20:41:00,
2013-05-04 13:52:00,68.0,52.0,29.51,SSE,149,2.0,7.0,56,0.00,,,0.00,,2013-05-04 20:52:00,
2013-05-04 14:02:00,69.0,54.0,29.51,North,0,0.0,7.0,58,0.00,,,0.00,,2013-05-04 21:02:00,
2013-05-04 14:11:00,69.0,54.0,29.51,North,0,0.0,7.0,58,0.00,,,0.00,,2013-05-04 21:11:00,
2013-05-04 14:21:00,69.0,54.0,29.51,North,0,0.0,7.0,58,0.00,,,0.00,,2013-05-04 21:21:00,
2013-05-04 14:33:00,69.0,54.0,29.51,North,0,0.0,7.0,58,0.00,,,0.00,,2013-05-04 21:33:00,
2013-05-04 14:43:00,69.0,54.0,29.51,North,0,0.0,7.0,58,0.00,,,0.00,,2013-05-04 21:43:00,
2013-05-04 14:53:00,70.0,53.0,29.49,South,177,1.0,6.0,55,0.00,,,0.00,,2013-05-04 21:53:00,
2013-05-04 15:03:00,69.0,53.0,29.49,North,0,0.0,4.0,56,0.00,,,0.00,,2013-05-04 22:03:00,
2013-05-04 15:12:00,69.0,53.0,29.49,North,0,0.0,4.0,56,0.00,,,0.00,,2013-05-04 22:12:00,
2013-05-04 15:22:00,69.0,51.0,29.49,North,0,0.0,5.0,53,0.00,,,0.00,,2013-05-04 22:22:00,
2013-05-04 15:32:00,69.0,51.0,29.49,North,0,0.0,5.0,53,0.00,,,0.00,,2013-05-04 22:32:00,
2013-05-04 15:42:00,69.0,51.0,29.49,North,0,0.0,5.0,53,0.00,,,0.00,,2013-05-04 22:42:00,
2013-05-04 15:52:00,69.0,51.0,29.49,North,0,0.0,5.0,53,0.00,,,0.00,,2013-05-04 22:52:00,
2013-05-04 16:02:00,69.0,52.0,29.49,North,0,0.0,5.0,55,0.00,,,0.00,,2013-05-04 23:02:00,
2013-05-04 16:11:00,69.0,52.0,29.49,North,0,0.0,5.0,55,0.00,,,0.00,,2013-05-04 23:11:00,
2013-05-04 16:21:00,69.0,52.0,29.49,North,0,0.0,5.0,55,0.00,,,0.00,,2013-05-04 23:21:00,
2013-05-04 16:32:00,69.0,52.0,29.49,North,0,0.0,5.0,55,0.00,,,0.00,,2013-05-04 23:32:00,
2013-05-04 16:42:00,69.0,52.0,29.49,North,0,0.0,5.0,55,0.00,,,0.00,,2013-05-04 23:42:00,
2013-05-04 17:01:00,62.0,53.0,29.49,North,0,0.0,5.0,72,0.00,,,0.00,,2013-05-05 00:01:00,
2013-05-04 17:11:00,62.0,53.0,29.49,North,0,0.0,5.0,72,0.00,,,0.00,,2013-05-05 00:11:00,
2013-05-04 17:21:00,62.0,53.0,29.49,North,0,0.0,5.0,72,0.00,,,0.00,,2013-05-05 00:21:00,
2013-05-04 17:31:00,62.0,53.0,29.49,North,0,0.0,5.0,72,0.00,,,0.00,,2013-05-05 00:31:00,
2013-05-04 17:42:00,62.0,53.0,29.49,North,0,0.0,5.0,72,0.00,,,0.00,,2013-05-05 00:42:00,
2013-05-04 17:52:00,62.0,53.0,29.50,North,0,0.0,2.0,72,0.00,,,0.00,,2013-05-05 00:52:00,
2013-05-04 18:01:00,63.0,53.0,29.49,North,0,0.0,6.0,71,0.00,,,0.00,,2013-05-05 01:01:00,
2013-05-04 18:11:00,63.0,53.0,29.49,North,0,0.0,6.0,71,0.00,,,0.00,,2013-05-05 01:11:00,
2013-05-04 18:21:00,63.0,53.0,29.49,North,0,0.0,6.0,71,0.00,,,0.00,,2013-05-05 01:21:00,
2013-05-04 18:32:00,63.0,53.0,29.49,North,0,0.0,6.0,71,0.00,,,0.00,,2013-05-05 01:32:00,
2013-05-04 18:41:00,63.0,53.0,29.49,North,0,0.0,6.0,71,0.00,,,0.00,,2013-05-05 01:41:00,
2013-05-04 19:02:00,61.0,52.0,29.49,North,0,0.0,1.0,72,0.00,,,0.00,,2013-05-05 02:02:00,
2013-05-04 19:11:00,61.0,52.0,29.49,North,0,0.0,1.0,72,0.00,,,0.00,,2013-05-05 02:11:00,
2013-05-04 19:21:00,61.0,52.0,29.49,North,0,0.0,1.0,73,0.00,,,0.00,,2013-05-05 02:21:00,
2013-05-04 19:31:00,61.0,52.0,29.49,North,0,0.0,1.0,73,0.00,,,0.00,,2013-05-05 02:31:00,
2013-05-04 19:42:00,61.0,52.0,29.49,North,0,0.0,1.0,73,0.00,,,0.00,,2013-05-05 02:42:00,
2013-05-04 19:52:00,60.0,51.0,29.49,East,100,2.0,6.0,72,0.00,,,0.00,,2013-05-05 02:52:00,
2013-05-04 20:01:00,60.0,51.0,29.49,East,100,2.0,6.0,72,0.00,,,0.00,,2013-05-05 03:01:00,
2013-05-04 20:11:00,60.0,51.0,29.49,East,100,2.0,6.0,72,0.00,,,0.00,,2013-05-05 03:11:00,
2013-05-04 20:21:00,60.0,51.0,29.49,East,100,2.0,6.0,72,0.00,,,0.00,,2013-05-05 03:21:00,
2013-05-04 21:02:00,52.0,50.0,29.54,North,0,0.0,5.0,93,0.00,,,0.00,,2013-05-05 04:02:00,
2013-05-04 21:12:00,52.0,50.0,29.54,North,0,0.0,5.0,93,0.00,,,0.00,,2013-05-05 04:12:00,
2013-05-04 21:22:00,52.0,50.0,29.54,North,0,0.0,0.0,94,0.00,,,0.00,,2013-05-05 04:22:00,
2013-05-04 21:32:00,52.0,50.0,29.54,North,0,0.0,0.0,94,0.00,,,0.00,,2013-05-05 04:32:00,
2013-05-04 21:43:00,52.0,50.0,29.54,North,0,0.0,0.0,94,0.00,,,0.00,,2013-05-05 04:43:00,
2013-05-04 21:52:00,52.0,50.0,29.55,North,0,0.0,0.0,94,0.00,,,0.00,,2013-05-05 04:52:00,
2013-05-04 22:02:00,52.0,51.0,29.56,North,0,0.0,5.0,95,0.00,,,0.00,,2013-05-05 05:02:00,
2013-05-04 22:12:00,52.0,51.0,29.56,North,0,0.0,5.0,95,0.00,,,0.00,,2013-05-05 05:12:00,
2013-05-04 22:21:00,52.0,51.0,29.56,East,87,3.0,8.0,95,0.00,,,0.00,,2013-05-05 05:21:00,
2013-05-04 22:31:00,52.0,51.0,29.56,East,87,3.0,8.0,95,0.00,,,0.00,,2013-05-05 05:31:00,
2013-05-04 22:42:00,52.0,51.0,29.56,East,87,3.0,8.0,95,0.00,,,0.00,,2013-05-05 05:42:00,
2013-05-04 22:52:00,52.0,51.0,29.56,East,94,10.0,15.0,95,0.00,,,0.00,,2013-05-05 05:52:00,
2013-05-04 23:01:00,52.0,51.0,29.56,East,94,10.0,15.0,95,0.00,,,0.00,,2013-05-05 06:01:00,
2013-05-04 23:11:00,52.0,51.0,29.56,East,94,10.0,15.0,95,0.00,,,0.00,,2013-05-05 06:11:00,
2013-05-04 23:21:00,51.0,49.0,29.57,ESE,108,11.0,15.0,94,0.00,,,0.00,,2013-05-05 06:21:00,
2013-05-04 23:32:00,51.0,49.0,29.57,ESE,108,11.0,15.0,94,0.00,,,0.00,,2013-05-05 06:32:00,
2013-05-04 23:42:00,51.0,49.0,29.57,ESE,108,11.0,15.0,94,0.00,,,0.00,,2013-05-05 06:42:00,
2013-05-04 23:52:00,51.0,49.0,29.57,ESE,108,11.0,15.0,94,0.00,,,0.00,,2013-05-05 06:52:00,